Waarnemingen

Advertentie
Mijn weer
Beauvechain, België (6458): temperatuur & dauwpunt: 09.01.2021 22:00:00 - 15.01.2021 22:00:00 (CET)Beauvechain, België (6458): windsnelheid & windstoten: 09.01.2021 22:00:00 - 15.01.2021 22:00:00 (CET)Beauvechain, België (6458): windrichting: 09.01.2021 22:00:00 - 15.01.2021 22:00:00 (CET)Beauvechain, België (6458): luchtdruk: 09.01.2021 22:00:00 - 15.01.2021 22:00:00 (CET)Beauvechain, België (6458): zicht: 09.01.2021 22:00:00 - 15.01.2021 22:00:00 (CET)
Datum & Tijd tt [°C] td [°C] ff [km/u] ff [kn] fx [km/u] fx [kn] dd ppp [hPa] vv [km]
15.01.2021 22:00:00 -0,1 -1,8 4 2 - - N 1031,4 11
15.01.2021 21:00:00 0,0 -1,9 4 2 7 4 N 1031,0 13
15.01.2021 20:00:00 0,0 -1,7 4 2 7 4 N 1030,9 12
15.01.2021 19:00:00 0,1 -1,8 4 2 - - N 1030,7 14
15.01.2021 18:00:00 0,1 -1,7 4 2 7 4 N 1030,5 12
15.01.2021 17:00:00 0,3 -1,8 4 2 11 6 N 1030,0 15
15.01.2021 16:00:00 0,6 -1,9 4 2 - - N 1029,7 15
15.01.2021 15:00:00 0,6 -2,2 7 4 18 10 NNW 1029,5 15
15.01.2021 14:00:00 0,5 -2,1 7 4 14 8 N 1029,5 15
15.01.2021 13:00:00 0,3 -1,9 11 6 - - N 1029,5 15
15.01.2021 12:00:00 0,0 -2,1 11 6 14 8 N 1029,5 15
15.01.2021 11:00:00 -0,3 -2,1 11 6 18 10 N 1028,9 15
15.01.2021 10:00:00 -1,0 -3,0 13 7 - - N - 10
15.01.2021 09:00:00 -0,8 -2,8 14 8 18 10 N 1027,0 15
15.01.2021 08:00:00 -1,0 -3,0 11 6 18 10 NNO 1026,2 15
15.01.2021 07:00:00 -0,9 -3,0 13 7 - - NNO 1025,4 10
15.01.2021 06:00:00 -1,0 -2,5 14 8 22 12 NNO 1024,5 11
15.01.2021 05:00:00 -1,0 -3,1 14 8 25 14 NO 1023,8 15
15.01.2021 04:00:00 -1,0 -3,5 18 10 - - NO 1023,0 20
15.01.2021 03:00:00 -0,9 -3,1 22 12 29 16 NO 1022,2 20
15.01.2021 02:00:00 -0,7 -2,9 18 10 25 14 NO 1021,2 20
15.01.2021 01:00:00 -0,4 -2,6 14 8 - - NO 1020,3 20
15.01.2021 00:00:00 0,0 -2,2 18 10 32 18 NO 1019,7 20
14.01.2021 23:00:00 0,3 -1,9 18 10 29 16 ONO 1019,1 20
14.01.2021 22:00:00 0,7 -1,7 18 10 - - ONO 1018,3 20
14.01.2021 21:00:00 1,0 -0,9 16 9 25 14 ONO 1017,6 10
14.01.2021 20:00:00 1,2 -0,6 15 8 25 14 ONO 1017,1 10
14.01.2021 19:00:00 1,0 -0,3 14 8 - - ONO 1016,8 6
14.01.2021 18:00:00 1,6 -0,7 11 6 22 12 O 1016,6 20
14.01.2021 17:00:00 1,5 -0,8 11 6 22 12 O 1016,6 15
14.01.2021 16:00:00 1,7 -0,6 13 7 - - OZO 1016,7 10
14.01.2021 15:00:00 1,8 -0,2 14 8 0 0 OZO 1017,0 15
14.01.2021 14:00:00 1,7 -0,3 11 6 0 0 OZO 1017,7 10
14.01.2021 13:00:00 1,3 0,0 11 6 - - OZO 1018,5 15
14.01.2021 12:00:00 0,6 0,3 7 4 11 6 O 1019,1 15
14.01.2021 11:00:00 0,3 0,3 7 4 11 6 O 1019,7 15
14.01.2021 10:00:00 0,3 0,3 4 2 - - N 1019,6 15
14.01.2021 09:00:00 0,1 0,1 7 4 14 8 ZO 1019,1 6
14.01.2021 08:00:00 -0,1 -0,1 7 4 18 10 OZO 1019,1 5
14.01.2021 07:00:00 0,0 -0,1 13 7 - - ONO 1019,1 2,0
14.01.2021 06:00:00 1,1 0,5 14 8 18 10 ONO 1018,7 4,1
14.01.2021 05:00:00 2,4 2,2 - - 0 0 - 1018,5 3,1
14.01.2021 04:00:00 2,4 2,0 - - - - - 1018,0 3,4
14.01.2021 03:00:00 2,5 1,6 - - 0 0 - 1018,1 9
14.01.2021 02:00:00 2,5 1,2 - - 0 0 - 1017,7 19
14.01.2021 01:00:00 2,7 1,3 - - - - - 1018,1 19
14.01.2021 00:00:00 3,2 2,2 - - 0 0 - 1017,7 8
13.01.2021 23:00:00 3,5 2,4 - - 0 0 - 1017,5 7
13.01.2021 22:00:00 3,7 3,4 - - - - - 1017,1 5
13.01.2021 21:00:00 3,7 3,5 - - 0 0 - 1016,2 3,7
13.01.2021 20:00:00 3,9 3,8 - - 0 0 - 1016,2 3,4
13.01.2021 19:00:00 3,7 3,7 - - - - - 1016,0 3,6
13.01.2021 18:00:00 3,7 3,7 - - 0 0 - 1016,1 0,9
13.01.2021 17:00:00 3,5 3,3 14 8 0 0 WZW 1015,8 2,0
13.01.2021 16:00:00 3,7 2,8 14 8 - - WZW 1015,8 4,0
13.01.2021 15:00:00 4,1 2,5 18 10 0 0 WZW 1016,5 17
13.01.2021 14:00:00 3,9 1,8 18 10 0 0 WZW 1016,8 17
13.01.2021 13:00:00 4,0 1,1 22 12 - - WZW 1017,6 17
13.01.2021 12:00:00 2,9 0,7 14 8 0 0 WZW 1018,5 15
13.01.2021 11:00:00 1,8 0,2 14 8 0 0 WZW 1019,1 15
13.01.2021 10:00:00 1,2 0,1 18 10 - - WZW 1019,3 12
13.01.2021 09:00:00 1,1 0,1 16 9 0 0 WZW 1019,2 10
13.01.2021 08:00:00 0,9 0,0 14 8 0 0 WZW 1019,2 12
13.01.2021 07:00:00 0,9 0,0 16 9 - - ZW 1019,2 10
13.01.2021 06:00:00 0,8 -0,1 - - 0 0 - 1019,5 12
13.01.2021 05:00:00 0,8 0,0 - - 0 0 - 1019,6 15
13.01.2021 04:00:00 0,6 0,0 - - - - - 1019,7 12
13.01.2021 03:00:00 0,7 -0,1 - - 0 0 - 1019,2 14
13.01.2021 02:00:00 0,8 -0,1 - - 0 0 - 1019,2 16
13.01.2021 01:00:00 1,0 0,0 - - - - - 1019,1 15
13.01.2021 00:00:00 1,5 0,3 - - 0 0 - 1018,7 19
12.01.2021 23:00:00 1,5 0,0 - - 0 0 - 1018,2 20
12.01.2021 22:00:00 1,8 0,3 - - - - - 1017,7 20
12.01.2021 21:00:00 2,2 0,3 7 4 0 0 W 1017,0 20
12.01.2021 20:00:00 2,5 -0,6 11 6 0 0 WZW 1016,2 20
12.01.2021 19:00:00 2,4 -1,4 7 4 - - W 1015,3 20
12.01.2021 18:00:00 3,1 -1,1 7 4 0 0 WNW 1014,5 20
12.01.2021 17:00:00 4,2 -1,3 14 8 0 0 NNW 1013,8 20
12.01.2021 16:00:00 5,0 1,5 14 8 - - NW 1012,5 20
12.01.2021 15:00:00 5,3 3,4 14 8 0 0 NW 1011,5 20
12.01.2021 14:00:00 6,3 4,5 22 12 0 0 NW 1010,5 20
12.01.2021 13:00:00 6,7 5,6 22 12 - - NW 1010,0 10
12.01.2021 12:00:00 7,0 6,2 18 10 0 0 NW 1009,2 9
12.01.2021 11:00:00 7,0 6,3 18 10 0 0 NW 1008,3 9
12.01.2021 10:00:00 - - - - - - - - -
12.01.2021 09:00:00 7,0 6,3 32 18 0 0 WZW 1006,8 8
12.01.2021 08:00:00 6,9 6,0 25 14 0 0 WZW 1006,8 6
12.01.2021 07:00:00 7,0 5,9 29 16 - - WZW 1007,1 10
12.01.2021 06:00:00 6,7 5,9 - - 0 0 - 1007,7 7
12.01.2021 05:00:00 6,4 5,5 - - 0 0 - 1008,6 14
12.01.2021 04:00:00 6,2 5,3 - - - - - 1009,6 9
12.01.2021 03:00:00 5,6 5,0 - - 0 0 - 1010,7 5
12.01.2021 02:00:00 5,2 4,6 - - 0 0 - 1011,5 6
12.01.2021 01:00:00 5,5 4,5 - - - - - 1012,6 7
12.01.2021 00:00:00 5,1 4,1 - - 0 0 - 1013,5 15
11.01.2021 23:00:00 5,1 3,7 - - 0 0 - 1014,1 9
11.01.2021 22:00:00 5,0 3,2 - - - - - 1014,7 15
11.01.2021 21:00:00 4,6 2,8 25 14 0 0 ZW 1015,2 13
11.01.2021 20:00:00 4,3 2,6 25 14 0 0 ZW 1016,1 10
11.01.2021 19:00:00 4,0 2,1 25 14 - - ZW 1016,2 13
11.01.2021 18:00:00 3,9 2,0 25 14 - - ZW 1016,8 15
11.01.2021 17:00:00 3,8 2,0 25 14 0 0 ZW 1017,2 15
11.01.2021 16:00:00 3,9 1,6 25 14 - - ZW 1017,6 12
11.01.2021 15:00:00 3,5 1,4 29 16 0 0 ZW 1018,8 12
11.01.2021 14:00:00 3,0 1,3 22 12 0 0 ZW 1019,4 4,0
11.01.2021 13:00:00 2,7 1,2 25 14 - - ZW 1020,0 10
11.01.2021 12:00:00 2,4 0,7 24 13 36 19 ZZW 1020,8 10
11.01.2021 11:00:00 2,0 0,0 24 13 36 19 ZZW 1021,0 10
11.01.2021 10:00:00 1,6 -0,1 22 12 - - ZZW 1031,5 8
11.01.2021 09:00:00 1,4 -0,3 18 10 32 18 ZZW 1021,8 6
11.01.2021 08:00:00 0,6 -0,2 18 10 29 16 ZZW 1022,2 6
11.01.2021 07:00:00 0,8 -0,3 21 11 - - ZZW 1022,2 8
11.01.2021 06:00:00 0,9 -0,3 18 10 25 14 ZW 1022,7 8
11.01.2021 05:00:00 0,6 -0,2 15 8 18 10 ZW 1023,5 8
11.01.2021 04:00:00 0,6 -0,2 15 8 - - ZZW 1023,5 10
11.01.2021 03:00:00 0,6 -0,2 14 8 18 10 ZZW 1023,5 6
11.01.2021 02:00:00 0,3 -0,4 11 6 14 8 ZZW 1023,8 5
11.01.2021 01:00:00 -0,1 -0,5 7 4 - - ZZW 1024,0 3,8
11.01.2021 00:00:00 -1,0 -1,0 5 3 - - WZW - 1,8
10.01.2021 23:00:00 -1,0 -1,0 5 3 - - W - 1,5
10.01.2021 22:00:00 -0,8 -1,1 8 4 - - ZW 1024,7 1,5
10.01.2021 21:00:00 -0,4 -1,0 7 4 11 6 ZW 1024,9 2,9
10.01.2021 20:00:00 -0,1 -0,8 7 4 11 6 ZW 1025,0 5
10.01.2021 19:00:00 1,0 -1,0 9 5 - - ZZW - 7
10.01.2021 18:00:00 1,0 0,0 8 4 - - W - 10
10.01.2021 17:00:00 2,0 0,0 9 5 - - WZW - 10
10.01.2021 16:00:00 3,2 1,0 7 4 - - N 1024,7 13
10.01.2021 15:00:00 3,7 1,1 4 2 11 6 N 1024,5 11
10.01.2021 14:00:00 3,9 1,7 4 2 7 4 N 1024,5 14
10.01.2021 13:00:00 3,0 1,0 5 3 - - ZW - 10
10.01.2021 12:00:00 1,0 1,0 8 4 - - ZZW - 6
10.01.2021 11:00:00 0,0 0,0 8 4 7 4 ZW 1025,9 5
10.01.2021 10:00:00 -0,2 -0,3 7 4 - - ZZW 1025,7 5
10.01.2021 09:00:00 -0,3 -0,5 5 3 7 4 ZW 1025,4 4,8
10.01.2021 08:00:00 0,0 -1,0 5 3 - - ZZW - 6
10.01.2021 07:00:00 -1,0 -1,0 8 4 - - ZZW - 4,7
10.01.2021 06:00:00 -0,4 -0,4 7 4 7 4 ZZW 1025,4 6
10.01.2021 05:00:00 -0,6 -0,7 7 4 7 4 ZW 1025,4 5
10.01.2021 04:00:00 -0,4 -0,4 5 3 - - ZW 1025,7 7
10.01.2021 03:00:00 -0,6 -0,6 4 2 7 4 N 1026,0 4,0
10.01.2021 02:00:00 -1,0 -1,0 5 3 - - ZW - 2,6
10.01.2021 01:00:00 -1,0 -1,0 5 3 - - WZW - 3,3
10.01.2021 00:00:00 -1,1 -1,1 7 4 7 4 N 1026,2 2,6
09.01.2021 23:00:00 -1,3 -1,3 7 4 11 6 ZW 1026,2 2,5
09.01.2021 22:00:00 -1,5 -1,5 7 4 - - N 1026,2 0,4

tt = temperatuur
td = dauwpunt
ff = windsnelheid
fx = windstoten
dd = windrichting
ppp = luchtdruk
vv = zicht

Weerstations in de omgeving